IRNSS-1F 1 41384U 16015A 21065.77965309 .00000142 00000-0 00000+0 0 9999 2 41384 1.9680 197.1274 0022689 184.2833 96.3436 1.00275574 18352 PSLV R/B 1 41385U 16015B 21065.15342989 .00002541 00000-0 42256-3 0 9993 2 41385 17.7223 248.8786 5960160 19.6334 355.9585 4.10942250 73020